Voltar ao catálogo

DELTA 1 DEB

AtivoPO
NORAD 21441·DEBRIS·🇺🇸 United States

Lançado Jun 12, 1975 de Vandenberg Space Force Base

Loading…

Próximas Passagens (próximas 24 horas)

TLE

AtualizadoSource: Space-Track

Época: Sep 14, 2026, 06:17 UTC

1 21441U 75052DZ  26257.26204773  .00000102  00000-0  47594-3 0  9999
2 21441  99.7234   4.6029 0302674 309.8730  74.6970 12.84269790657011

Acompanhe DELTA 1 DEB em tempo real com AllMySat

Download on the App Store